| time (UTC) | temp F | wind direction | speed knots | gust knots | rain 1hr in | rain 24hr in | rain mn in | humidity % | barometer mb |
| 20260903060012 | 73 | 176 | 0.9 | 2.6 | 0.00 | 0.00 | 0.00 | 90 | 1014.1 |
| 20260903054509 | 73 | 176 | 0.9 | 2.6 | 0.00 | 0.00 | 0.00 | 91 | 1014.1 |
| 20260903053004 | 73 | 155 | 0.9 | 1.7 | 0.00 | 0.00 | 0.00 | 91 | 1014.0 |
| 20260903051503 | 73 | 155 | 0.9 | 1.7 | 0.00 | 0.00 | 0.00 | 90 | 1014.0 |
| 20260903050101 | 73 | 155 | 0.0 | 0.0 | 0.00 | 0.00 | 0.00 | 90 | 1014.0 |
| 20260903044601 | 73 | 155 | 0.0 | 0.9 | 0.00 | 0.00 | 0.00 | 90 | 1013.7 |
| 20260903043052 | 73 | 155 | 0.0 | 0.9 | 0.00 | 0.00 | 0.00 | 90 | 1013.7 |
| 20260903041548 | 73 | 155 | 0.0 | 0.0 | 0.00 | 0.00 | 0.00 | 90 | 1013.6 |
| 20260903040044 | 73 | 155 | 0.0 | 0.0 | 0.00 | 0.00 | 0.00 | 90 | 1013.7 |
| 20260903034544 | 73 | 155 | 0.0 | 0.0 | 0.00 | 0.00 | 0.00 | 90 | 1013.7 |
| 20260903033043 | 74 | 155 | 0.0 | 0.0 | 0.00 | 0.00 | 0.00 | 90 | 1013.8 |
| 20260903031543 | 74 | 155 | 0.0 | 0.0 | 0.00 | 0.00 | 0.00 | 89 | 1013.9 |
| 20260903030042 | 74 | 155 | 0.0 | 0.9 | 0.00 | 0.00 | 0.00 | 89 | 1014.1 |
| 20260903024545 | 74 | 155 | 0.0 | 0.0 | 0.00 | 0.00 | 0.00 | 90 | 1014.1 |
| 20260903023041 | 74 | 155 | 0.0 | 0.0 | 0.00 | 0.00 | 0.00 | 89 | 1014.2 |
| 20260903021641 | 74 | 155 | 0.0 | 1.7 | 0.00 | 0.00 | 0.00 | 89 | 1014.2 |
| 20260903020040 | 75 | 155 | 0.0 | 0.9 | 0.00 | 0.00 | 0.00 | 89 | 1014.2 |
| 20260903014547 | 75 | 155 | 0.0 | 0.0 | 0.00 | 0.00 | 0.00 | 89 | 1014.2 |
| 20260903013039 | 76 | 155 | 0.0 | 0.0 | 0.00 | 0.00 | 0.00 | 88 | 1014.1 |
| 20260903011538 | 76 | 155 | 0.0 | 0.9 | 0.00 | 0.00 | 0.00 | 87 | 1014.0 |
| 20260903010037 | 77 | 155 | 0.0 | 0.9 | 0.00 | 0.00 | 0.00 | 87 | 1013.8 |
| 20260903004539 | 78 | 155 | 0.0 | 0.0 | 0.00 | 0.00 | 0.00 | 85 | 1013.6 |
| 20260903003036 | 80 | 155 | 0.9 | 1.7 | 0.00 | 0.00 | 0.00 | 82 | 1013.5 |
| 20260903001536 | 81 | 155 | 0.0 | 0.0 | 0.00 | 0.00 | 0.00 | 79 | 1013.5 |
| 20260903000036 | 83 | 155 | 0.0 | 0.9 | 0.00 | 0.00 | 0.00 | 77 | 1013.5 |
| 20260902234536 | 85 | 155 | 0.0 | 1.7 | 0.00 | 0.00 | 0.00 | 74 | 1013.4 |
| 20260902233034 | 86 | 155 | 0.0 | 2.6 | 0.00 | 0.00 | 0.00 | 71 | 1013.4 |
| 20260902231533 | 88 | 155 | 1.7 | 4.3 | 0.00 | 0.00 | 0.00 | 67 | 1013.5 |
| 20260902230032 | 89 | 157 | 2.6 | 4.3 | 0.00 | 0.00 | 0.00 | 65 | 1013.6 |
| 20260902224533 | 89 | 157 | 3.5 | 6.1 | 0.00 | 0.00 | 0.00 | 62 | 1013.5 |
| 20260902223032 | 90 | 196 | 4.3 | 8.7 | 0.00 | 0.00 | 0.00 | 59 | 1013.5 |
| 20260902221529 | 90 | 202 | 4.3 | 8.7 | 0.00 | 0.00 | 0.00 | 58 | 1013.6 |
| 20260902220028 | 90 | 207 | 5.2 | 9.6 | 0.00 | 0.00 | 0.00 | 58 | 1013.7 |
| 20260902214530 | 90 | 193 | 6.1 | 11.3 | 0.00 | 0.00 | 0.00 | 57 | 1013.8 |
| 20260902213030 | 91 | 199 | 6.1 | 9.6 | 0.00 | 0.00 | 0.00 | 57 | 1013.8 |
| 20260902211524 | 91 | 207 | 7.0 | 9.6 | 0.00 | 0.00 | 0.00 | 57 | 1013.9 |
| 20260902210039 | 91 | 192 | 5.2 | 8.7 | 0.00 | 0.00 | 0.00 | 58 | 1013.9 |
| 20260902204522 | 91 | 249 | 5.2 | 9.6 | 0.00 | 0.00 | 0.00 | 56 | 1014.1 |
| 20260902203021 | 91 | 214 | 5.2 | 8.7 | 0.00 | 0.00 | 0.00 | 57 | 1014.3 |
| 20260902201519 | 91 | 177 | 5.2 | 11.3 | 0.00 | 0.00 | 0.00 | 59 | 1014.3 |
| 20260902200023 | 91 | 165 | 7.0 | 10.4 | 0.00 | 0.00 | 0.00 | 58 | 1014.4 |
| 20260902194517 | 91 | 194 | 7.8 | 11.3 | 0.00 | 0.00 | 0.00 | 59 | 1014.7 |
| 20260902193014 | 90 | 230 | 4.3 | 8.7 | 0.00 | 0.00 | 0.00 | 60 | 1014.8 |
| 20260902191514 | 91 | 232 | 1.7 | 9.6 | 0.00 | 0.00 | 0.00 | 59 | 1015.0 |
| 20260902190011 | 91 | 167 | 6.1 | 11.3 | 0.00 | 0.00 | 0.00 | 58 | 1015.1 |
| 20260902184511 | 91 | 192 | 7.8 | 10.4 | 0.00 | 0.00 | 0.00 | 57 | 1015.2 |
| 20260902183009 | 91 | 205 | 6.1 | 13.0 | 0.00 | 0.00 | 0.00 | 62 | 1015.3 |
| 20260902181507 | 90 | 212 | 4.3 | 8.7 | 0.00 | 0.00 | 0.00 | 62 | 1015.4 |
| 20260902180007 | 90 | 181 | 5.2 | 10.4 | 0.00 | 0.00 | 0.00 | 64 | 1015.7 |
| 20260902174502 | 90 | 205 | 7.8 | 9.6 | 0.00 | 0.00 | 0.00 | 59 | 1015.5 |
| 20260902173100 | 90 | 166 | 6.1 | 9.6 | 0.00 | 0.00 | 0.00 | 64 | 1015.8 |
| 20260902171601 | 90 | 186 | 6.1 | 10.4 | 0.00 | 0.00 | 0.00 | 62 | 1015.8 |
| 20260902170055 | 89 | 241 | 5.2 | 11.3 | 0.00 | 0.00 | 0.00 | 63 | 1015.9 |
| 20260902164552 | 89 | 182 | 6.1 | 9.6 | 0.00 | 0.00 | 0.00 | 66 | 1016.0 |
| 20260902163055 | 88 | 209 | 4.3 | 7.0 | 0.00 | 0.00 | 0.00 | 67 | 1016.2 |
| 20260902161544 | 88 | 166 | 4.3 | 8.7 | 0.00 | 0.00 | 0.00 | 67 | 1016.3 |
| 20260902160040 | 87 | 267 | 1.7 | 7.8 | 0.00 | 0.00 | 0.00 | 67 | 1016.4 |
| 20260902154535 | 87 | 232 | 4.3 | 8.7 | 0.00 | 0.00 | 0.00 | 67 | 1016.4 |
| 20260902153032 | 86 | 203 | 3.5 | 7.0 | 0.00 | 0.00 | 0.00 | 70 | 1016.5 |
| 20260902151528 | 86 | 205 | 5.2 | 8.7 | 0.00 | 0.00 | 0.00 | 69 | 1016.5 |
| 20260902150024 | 85 | 196 | 3.5 | 7.0 | 0.00 | 0.00 | 0.00 | 72 | 1016.5 |
| 20260902144531 | 84 | 223 | 4.3 | 7.8 | 0.00 | 0.00 | 0.00 | 73 | 1016.6 |
| 20260902143013 | 83 | 229 | 5.2 | 8.7 | 0.00 | 0.00 | 0.00 | 73 | 1016.5 |
| 20260902141511 | 83 | 184 | 4.3 | 8.7 | 0.00 | 0.00 | 0.00 | 75 | 1016.4 |
| 20260902140006 | 82 | 176 | 4.3 | 7.8 | 0.00 | 0.00 | 0.00 | 76 | 1016.5 |
| 20260902134502 | 81 | 211 | 4.3 | 9.6 | 0.00 | 0.00 | 0.00 | 79 | 1016.4 |
| 20260902133105 | 80 | 210 | 4.3 | 7.8 | 0.00 | 0.00 | 0.00 | 80 | 1016.4 |
| 20260902131551 | 79 | 167 | 7.0 | 8.7 | 0.00 | 0.00 | 0.00 | 81 | 1016.4 |
| 20260902130051 | 78 | 174 | 5.2 | 10.4 | 0.00 | 0.00 | 0.00 | 84 | 1016.3 |
| 20260902124543 | 76 | 167 | 3.5 | 7.0 | 0.00 | 0.00 | 0.00 | 87 | 1016.3 |
| 20260902123038 | 75 | 183 | 2.6 | 5.2 | 0.00 | 0.00 | 0.00 | 89 | 1016.1 |
| 20260902121533 | 73 | 193 | 3.5 | 5.2 | 0.00 | 0.00 | 0.00 | 91 | 1016.1 |
| 20260902120031 | 72 | 105 | 0.9 | 2.6 | 0.00 | 0.00 | 0.00 | 94 | 1016.1 |
| 20260902114525 | 70 | 173 | 0.9 | 3.5 | 0.00 | 0.01 | 0.00 | 96 | 1016.0 |
| 20260902113021 | 69 | 170 | 0.0 | 0.0 | 0.00 | 0.01 | 0.00 | 95 | 1015.8 |
| 20260902111518 | 69 | 170 | 0.0 | 0.0 | 0.00 | 0.01 | 0.00 | 95 | 1015.6 |
| 20260902110017 | 69 | 170 | 0.0 | 1.7 | 0.00 | 0.01 | 0.00 | 95 | 1015.7 |
| 20260902104519 | 69 | 170 | 0.0 | 0.9 | 0.00 | 0.01 | 0.00 | 95 | 1015.7 |
| 20260902103015 | 69 | 170 | 0.0 | 0.9 | 0.00 | 0.01 | 0.00 | 94 | 1015.7 |
| 20260902101515 | 69 | 170 | 0.0 | 0.0 | 0.00 | 0.01 | 0.00 | 94 | 1015.6 |
| 20260902100013 | 69 | 170 | 0.0 | 0.0 | 0.00 | 0.01 | 0.00 | 94 | 1015.7 |
| 20260902094511 | 69 | 170 | 0.0 | 0.9 | 0.00 | 0.01 | 0.00 | 93 | 1015.6 |
| 20260902093008 | 69 | 170 | 0.0 | 0.0 | 0.00 | 0.01 | 0.00 | 93 | 1015.6 |
| 20260902091517 | 70 | 170 | 0.0 | 0.0 | 0.00 | 0.01 | 0.00 | 93 | 1015.5 |
| 20260902090005 | 70 | 170 | 0.0 | 0.0 | 0.00 | 0.01 | 0.00 | 91 | 1015.4 |
| 20260902084501 | 71 | 170 | 0.0 | 0.0 | 0.00 | 0.01 | 0.00 | 90 | 1015.4 |
| 20260902083059 | 72 | 170 | 0.0 | 0.0 | 0.00 | 0.01 | 0.00 | 91 | 1015.3 |
| 20260902081559 | 72 | 170 | 0.0 | 0.0 | 0.00 | 0.01 | 0.00 | 91 | 1015.2 |
| 20260902080112 | 72 | 170 | 0.0 | 0.9 | 0.00 | 0.01 | 0.00 | 90 | 1015.0 |
| 20260902074557 | 72 | 170 | 0.9 | 4.3 | 0.00 | 0.01 | 0.00 | 91 | 1014.9 |
| 20260902073106 | 71 | 166 | 2.6 | 3.5 | 0.00 | 0.01 | 0.00 | 92 | 1014.8 |
| 20260902071609 | 71 | 225 | 0.0 | 0.9 | 0.00 | 0.01 | 0.00 | 91 | 1014.8 |
| 20260902070053 | 72 | 225 | 0.9 | 1.7 | 0.00 | 0.01 | 0.00 | 91 | 1014.7 |
| 20260902064552 | 72 | 171 | 0.0 | 1.7 | 0.00 | 0.01 | 0.00 | 91 | 1014.7 |
| 20260902063051 | 71 | 171 | 0.9 | 2.6 | 0.00 | 0.01 | 0.00 | 91 | 1014.7 |
| 20260902061605 | 71 | 166 | 0.0 | 1.7 | 0.00 | 0.01 | 0.00 | 91 | 1014.7 |